Location: Battersea Observatory
(44.4318°N, 76.3841°W)
Time: 09:04:55
(UTC-05:00)

ISS - Pass Details

Date: 05 December 2021
Orbit: 413 x 422 km, 51.6° (Epoch: 24 January)

Event Time Altitude Azimuth Distance (km) Brightness Sun altitude
Rises 18:53:56 0° 294° (WNW) 2,379 1.0 -25.6°
Reaches altitude 10° 18:56:15 10° 281° (WNW) 1,508 0.0 -26.0°
Enters shadow 18:58:37 25° 239° (WSW) 886 -1.6 -26.4°
